FW7772 Weather Reports


Display with metric or nautical units.
time (UTC)temp
F
wind
direction
speed
MPH
gust
MPH
rain 1hr
in
rain 24hr
in
rain mn
in
humidity
%
barometer
mb
20260904064941 45 0 3.0 5.0 0.00 0.00 0.00 88 1000.6
20260904063943 44 305 2.0 4.0 0.00 0.00 0.00 91 1000.8
20260904062939 42 310 1.0 2.0 0.00 0.00 0.00 93 1000.8
20260904061939 41 310 1.0 5.0 0.00 0.00 0.00 93 1000.9
20260904060939 40 333 3.0 8.0 0.00 0.00 0.00 93 1001.1
20260904055939 40 318 3.0 7.0 0.00 0.00 0.00 92 1001.0
20260904055419 40 300 3.0 5.0 0.00 0.00 0.00 93 1000.9
20260904053939 39 319 4.0 8.0 0.00 0.00 0.00 92 1001.1
20260904052939 39 314 4.0 6.0 0.00 0.00 0.00 92 1001.1
20260904051939 38 279 2.0 5.0 0.00 0.00 0.00 92 1001.1
20260904050939 38 300 4.0 6.0 0.00 0.00 0.00 92 1001.2
20260904050433 38 287 4.0 6.0 0.00 0.00 0.00 91 1001.1
20260904045414 38 283 4.0 8.0 0.00 0.00 0.00 91 1001.2
20260904043937 38 310 3.0 5.0 0.00 0.00 0.00 91 1001.2
20260904042937 38 326 4.0 5.0 0.00 0.00 0.00 90 1001.3
20260904041936 38 293 2.0 5.0 0.00 0.00 0.00 90 1001.2
20260904040936 38 300 1.0 4.0 0.00 0.00 0.00 90 1001.3
20260904035936 38 300 1.0 3.0 0.00 0.00 0.00 90 1001.3
20260904035850 38 300 3.0 5.0 0.00 0.00 0.00 90 1001.3
20260904033936 39 315 4.0 5.0 0.00 0.00 0.00 90 1001.3
20260904032936 39 324 2.0 5.0 0.00 0.00 0.00 90 1001.3
20260904031937 40 237 2.0 3.0 0.00 0.00 0.00 91 1001.7
20260904030936 40 322 2.0 5.0 0.00 0.00 0.00 91 1001.5
20260904025937 40 350 2.0 4.0 0.00 0.00 0.00 91 1001.5
20260904024929 40 337 4.0 8.0 0.00 0.00 0.00 91 1001.7
20260904023930 40 323 5.0 9.0 0.00 0.00 0.00 91 1001.8
20260904022929 40 300 4.0 9.0 0.00 0.00 0.00 90 1001.8
20260904021929 40 316 3.0 5.0 0.00 0.00 0.00 90 1001.7
20260904021412 40 345 3.0 8.0 0.00 0.00 0.00 90 1001.9
20260904015930 40 331 2.0 8.0 0.00 0.00 0.00 90 1002.0
20260904014930 41 327 3.0 8.0 0.00 0.00 0.00 89 1002.1
20260904013929 41 310 1.0 5.0 0.00 0.00 0.00 89 1002.1
20260904012930 41 305 1.0 3.0 0.00 0.00 0.00 90 1002.1
20260904011929 41 254 3.0 5.0 0.00 0.00 0.00 90 1002.2
20260904010930 41 305 4.0 8.0 0.00 0.00 0.00 90 1002.3
20260904010405 42 317 4.0 7.0 0.00 0.00 0.00 90 1002.4
20260904004930 42 322 2.0 5.0 0.00 0.00 0.00 90 1002.4
20260904003929 42 314 2.0 4.0 0.00 0.00 0.00 90 1002.5
20260904002929 42 327 4.0 6.0 0.00 0.00 0.00 91 1002.6
20260904001928 43 263 4.0 8.0 0.00 0.00 0.00 91 1002.8
20260904001408 43 300 3.0 7.0 0.00 0.00 0.00 91 1002.9
20260903235928 43 322 4.0 7.0 0.00 0.00 0.00 91 1003.0
20260903235402 43 337 3.0 5.0 0.00 0.00 0.00 91 1003.0
20260903233928 43 348 3.0 5.0 0.00 0.00 0.00 91 1003.1
20260903232929 42 291 4.0 6.0 0.00 0.00 0.00 91 1003.0
20260903231929 42 300 5.0 8.0 0.00 0.00 0.00 91 1003.0
20260903231405 42 293 4.0 6.0 0.00 0.00 0.00 90 1003.1
20260903225928 42 281 4.0 5.0 0.00 0.00 0.00 90 1003.2
20260903224922 43 274 3.0 5.0 0.00 0.00 0.00 90 1003.2
20260903223923 43 335 2.0 3.0 0.00 0.00 0.00 90 1003.2
20260903222922 43 287 3.0 5.0 0.00 0.00 0.00 90 1003.2
20260903221922 43 327 3.0 5.0 0.00 0.00 0.00 90 1003.3
20260903221405 43 315 3.0 5.0 0.00 0.00 0.00 89 1003.3
20260903215922 43 352 2.0 5.0 0.00 0.00 0.00 89 1003.3
20260903214921 43 300 2.0 4.0 0.00 0.00 0.00 88 1003.4
20260903213920 43 324 3.0 4.0 0.00 0.00 0.00 88 1003.4
20260903212920 43 256 2.0 4.0 0.00 0.00 0.00 88 1003.4
20260903211914 44 291 2.0 4.0 0.00 0.00 0.00 87 1003.4
20260903210914 44 282 2.0 4.0 0.00 0.00 0.00 87 1003.3
20260903205914 44 300 2.0 4.0 0.00 0.00 0.00 87 1003.3
20260903204912 44 290 2.0 4.0 0.00 0.00 0.00 86 1003.3
20260903203910 45 310 1.0 3.0 0.00 0.00 0.00 86 1003.2
20260903202911 45 329 1.0 2.0 0.00 0.00 0.00 85 1003.1
20260903201910 45 329 1.0 3.0 0.00 0.00 0.00 85 1003.2
20260903200911 46 305 2.0 4.0 0.00 0.00 0.00 85 1003.1
20260903195911 46 310 2.0 3.0 0.00 0.00 0.00 85 1003.3
20260903194904 46 300 3.0 5.0 0.00 0.00 0.00 84 1003.4
20260903193905 47 285 3.0 4.0 0.00 0.00 0.00 84 1003.4
20260903192904 47 289 2.0 4.0 0.00 0.00 0.00 83 1003.4
20260903191904 48 320 1.0 3.0 0.00 0.00 0.00 83 1003.3
20260903191821 49 320 0.0 0.0 0.00 0.00 0.00 82 1003.3
20260903190353 49 320 0.0 1.0 0.00 0.00 0.00 82 1003.4
20260903184905 50 320 1.0 2.0 0.00 0.00 0.00 81 1003.5
20260903183905 51 320 2.0 3.0 0.00 0.00 0.00 81 1003.5
20260903183337 51 250 2.0 3.0 0.00 0.00 0.00 81 1003.4
20260903181902 52 250 1.0 2.0 0.00 0.00 0.00 80 1003.4
20260903180901 53 250 1.0 3.0 0.00 0.00 0.00 80 1003.6
20260903175902 53 335 0.0 0.0 0.00 0.00 0.00 80 1003.6
20260903174902 53 335 0.0 2.0 0.00 0.00 0.00 80 1003.5
20260903173902 53 335 1.0 3.0 0.00 0.00 0.00 80 1003.6
20260903173338 53 335 2.0 3.0 0.00 0.00 0.00 80 1003.5
20260903171902 54 341 2.0 3.0 0.00 0.00 0.00 78 1003.5
20260903171037 55 289 2.0 3.0 0.00 0.00 0.00 75 1003.5
20260903164902 57 279 3.0 6.0 0.00 0.00 0.00 69 1003.5
20260903163902 58 334 4.0 7.0 0.00 0.00 0.00 68 1003.6
20260903162901 58 281 5.0 8.0 0.00 0.00 0.00 63 1003.5
20260903162337 59 300 5.0 8.0 0.00 0.00 0.00 64 1003.6
20260903160901 59 289 4.0 8.0 0.00 0.00 0.00 66 1003.6
20260903155902 58 279 3.0 4.0 0.00 0.00 0.00 68 1003.6
20260903154901 59 238 3.0 5.0 0.00 0.00 0.00 64 1003.7
20260903153902 60 262 5.0 9.0 0.00 0.00 0.00 59 1003.6
20260903152901 61 291 4.0 9.0 0.00 0.00 0.00 62 1003.7
20260903151901 62 249 5.0 10.0 0.00 0.00 0.00 60 1003.7
20260903150857 62 251 3.0 7.0 0.00 0.00 0.00 62 1003.7
20260903145858 60 261 2.0 4.0 0.00 0.00 0.00 70 1003.7
20260903145336 58 235 1.0 4.0 0.00 0.00 0.00 74 1003.8
20260903143858 57 231 1.0 3.0 0.00 0.00 0.00 77 1003.8
20260903142858 57 324 0.0 1.0 0.00 0.00 0.00 75 1003.8
20260903141858 57 324 1.0 3.0 0.00 0.00 0.00 73 1003.8
20260903140859 58 310 3.0 6.0 0.00 0.00 0.00 67 1003.9
20260903135857 59 300 4.0 7.0 0.00 0.00 0.00 68 1003.9
20260903134901 58 331 2.0 5.0 0.00 0.00 0.00 72 1003.8
20260903134331 58 320 3.0 6.0 0.00 0.00 0.00 76 1003.9
20260903132851 59 310 3.0 5.0 0.00 0.00 0.00 64 1003.9
20260903131852 61 333 7.0 11.0 0.00 0.00 0.00 59 1003.7
20260903130851 63 300 5.0 17.0 0.00 0.00 0.00 60 1003.8
20260903130329 61 280 5.0 9.0 0.00 0.00 0.00 61 1003.8
20260903124851 62 344 5.0 10.0 0.00 0.00 0.00 53 1003.7
20260903123852 63 355 6.0 11.0 0.00 0.00 0.00 50 1003.8
20260903122851 62 246 8.0 12.0 0.00 0.00 0.00 51 1003.8
20260903121852 62 268 7.0 12.0 0.00 0.00 0.00 52 1003.8
20260903120853 62 305 7.0 13.0 0.00 0.00 0.00 51 1003.8
20260903115852 64 310 7.0 15.0 0.00 0.00 0.00 49 1003.8
20260903114850 65 326 5.0 11.0 0.00 0.00 0.00 49 1003.8
20260903113849 65 300 6.0 10.0 0.00 0.00 0.00 48 1003.8
20260903112847 62 241 6.0 12.0 0.00 0.00 0.00 50 1003.8
20260903111847 64 332 7.0 12.0 0.00 0.00 0.00 47 1003.8
20260903111335 63 296 8.0 14.0 0.00 0.00 0.00 49 1003.9
20260903105848 63 310 6.0 12.0 0.00 0.00 0.00 50 1003.9
20260903104848 62 268 10.0 17.0 0.00 0.00 0.00 50 1003.9
20260903103848 63 310 8.0 15.0 0.00 0.00 0.00 52 1003.9
20260903102847 62 320 9.0 15.0 0.00 0.00 0.00 50 1003.9
20260903102324 63 317 7.0 14.0 0.00 0.00 0.00 53 1004.0
20260903100841 63 243 7.0 14.0 0.00 0.00 0.00 50 1004.0
20260903100800 61 280 10.0 17.0 0.00 0.00 0.00 56 1004.0
20260903095315 63 320 8.0 18.0 0.00 0.00 0.00 54 1004.1
20260903093841 62 285 9.0 15.0 0.00 0.00 0.00 55 1004.0
20260903093315 61 335 9.0 14.0 0.00 0.00 0.00 56 1004.1
20260903092324 60 305 7.0 14.0 0.00 0.00 0.00 54 1004.2
20260903090845 60 289 8.0 14.0 0.00 0.00 0.00 58 1004.1
20260903085842 60 315 8.0 14.0 0.00 0.00 0.00 57 1004.2
20260903084840 59 310 10.0 15.0 0.00 0.00 0.00 59 1004.1
20260903083835 58 305 11.0 16.0 0.00 0.00 0.00 58 1004.2
20260903082836 59 300 8.0 13.0 0.00 0.00 0.00 61 1004.1
20260903081835 58 300 7.0 11.0 0.00 0.00 0.00 60 1004.0
20260903081315 57 310 5.0 11.0 0.00 0.00 0.00 62 1004.1
20260903080315 56 310 3.0 9.0 0.00 0.00 0.00 64 1003.9
20260903074835 56 217 6.0 11.0 0.00 0.00 0.00 68 1004.1
20260903073833 55 288 4.0 10.0 0.00 0.00 0.00 70 1004.1
20260903072833 54 345 1.0 4.0 0.00 0.00 0.00 78 1004.1
20260903072314 53 338 3.0 4.0 0.00 0.00 0.00 76 1004.0
20260903070831 51 310 3.0 7.0 0.00 0.00 0.00 81 1004.1
20260903070307 49 310 3.0 5.0 0.00 0.00 0.00 91 1004.0